KI4SSU Weather Reports


Display with metric or nautical units.
time (UTC)temp
F
wind
direction
speed
MPH
gust
MPH
rain 1hr
in
rain 24hr
in
rain mn
in
humidity
%
barometer
mb
20260506143617 53 314 1.0 1.0 0.00 0.00 0.00
20260506143117 53 11 5.0 7.0 0.00 0.00 0.00
20260506142616 53 132 3.0 4.0 0.00 0.00 0.00
20260506141616 55 7 3.0 2.0 0.00 0.00 0.00
20260506141116 55 359 6.0 5.0 0.00 0.00 0.00
20260506140616 54 322 4.0 7.0 0.00 0.00 0.00
20260506140117 55 334 6.0 12.0 0.00 0.00 0.00
20260506135617 55 30 3.0 3.0 0.00 0.00 0.00
20260506135117 55 15 6.0 4.0 0.00 0.00 0.00
20260506134617 55 42 5.0 7.0 0.00 0.00 0.00
20260506134117 54 303 3.0 3.0 0.00 0.00 0.00
20260506133617 55 346 5.0 7.0 0.00 0.00 0.00
20260506133117 55 314 3.0 5.0 0.00 0.00 0.00
20260506132617 55 11 5.0 6.0 0.00 0.00 0.00
20260506132117 55 359 5.0 4.0 0.00 0.00 0.00
20260506131617 54 335 4.0 9.0 0.00 0.00 0.00
20260506131117 54 34 3.0 3.0 0.00 0.00 0.00
20260506130617 54 1 5.0 5.0 0.00 0.00 0.00
20260506130117 54 332 6.0 6.0 0.00 0.00 0.00
20260506125117 55 356 5.0 6.0 0.00 0.00 0.00
20260506124617 55 338 5.0 9.0 0.00 0.00 0.00
20260506124117 55 359 2.0 4.0 0.00 0.00 0.00
20260506123617 55 66 3.0 11.0 0.00 0.00 0.00
20260506123117 55 27 4.0 0.0 0.00 0.00 0.00
20260506122117 55 346 7.0 8.0 0.00 0.00 0.00
20260506121617 55 4 7.0 10.0 0.00 0.00 0.00
20260506121117 55 14 7.0 9.0 0.00 0.00 0.00
20260506120617 56 332 6.0 10.0 0.00 0.00 0.00
20260506120118 56 348 6.0 4.0 0.00 0.00 0.00
20260506115617 56 332 5.0 5.0 0.00 0.00 0.00
20260506115117 56 31 3.0 4.0 0.00 0.00 0.00
20260506114617 56 339 6.0 7.0 0.00 0.00 0.00
20260506114117 56 336 2.0 4.0 0.00 0.00 0.00
20260506113617 56 353 5.0 9.0 0.00 0.00 0.00
20260506113117 56 351 5.0 6.0 0.00 0.00 0.00
20260506112617 56 21 5.0 8.0 0.00 0.00 0.00
20260506112117 57 359 4.0 5.0 0.00 0.00 0.00
20260506111617 57 7 5.0 4.0 0.00 0.00 0.00
20260506111118 57 61 6.0 6.0 0.00 0.00 0.00
20260506110617 57 339 4.0 7.0 0.00 0.00 0.00
20260506110118 57 335 4.0 8.0 0.00 0.00 0.00
20260506105618 57 344 0.0 3.0 0.00 0.00 0.00
20260506105117 57 346 5.0 3.0 0.00 0.00 0.00
20260506104618 57 44 4.0 2.0 0.00 0.00 0.00
20260506104117 57 7 4.0 4.0 0.00 0.00 0.00
20260506103618 58 318 7.0 8.0 0.00 0.00 0.00
20260506103117 58 356 5.0 6.0 0.00 0.00 0.00
20260506102617 58 332 5.0 7.0 0.00 0.00 0.00
20260506102117 58 23 3.0 7.0 0.00 0.00 0.00
20260506101617 58 62 8.0 5.0 0.00 0.00 0.00
20260506101117 58 356 6.0 5.0 0.00 0.00 0.00
20260506100617 58 353 4.0 7.0 0.00 0.00 0.00
20260506100118 58 7 3.0 6.0 0.00 0.00 0.00
20260506095617 58 342 5.0 4.0 0.00 0.00 0.00
20260506095117 59 336 5.0 4.0 0.00 0.00 0.00
20260506094618 58 359 5.0 10.0 0.00 0.00 0.00
20260506094117 59 328 5.0 8.0 0.00 0.00 0.00
20260506093617 59 332 6.0 8.0 0.00 0.00 0.00
20260506093117 59 352 5.0 3.0 0.00 0.00 0.00
20260506092618 59 359 4.0 7.0 0.00 0.00 0.00
20260506092118 59 348 3.0 4.0 0.00 0.00 0.00
20260506091618 59 359 5.0 4.0 0.00 0.00 0.00
20260506091118 59 52 4.0 3.0 0.00 0.00 0.00
20260506090618 59 286 5.0 7.0 0.00 0.00 0.00
20260506090118 59 3 3.0 7.0 0.00 0.00 0.00
20260506085618 60 327 5.0 7.0 0.00 0.00 0.00
20260506085118 60 31 5.0 7.0 0.00 0.00 0.00
20260506084618 60 20 6.0 6.0 0.00 0.00 0.00
20260506084118 60 339 5.0 6.0 0.00 0.00 0.00
20260506083618 60 358 3.0 3.0 0.00 0.00 0.00
20260506083118 60 11 4.0 3.0 0.00 0.00 0.00
20260506082618 60 359 4.0 6.0 0.00 0.00 0.00
20260506082118 60 348 4.0 4.0 0.00 0.00 0.00
20260506081618 61 304 3.0 3.0 0.00 0.00 0.00
20260506081118 61 328 4.0 2.0 0.00 0.00 0.00
20260506080618 61 4 2.0 7.0 0.00 0.00 0.00
20260506080118 61 304 3.0 8.0 0.00 0.00 0.00
20260506073118 62 341 1.0 7.0 0.00 0.00 0.00
20260506072618 61 351 3.0 4.0 0.00 0.00 0.00
20260506072118 61 159 1.0 3.0 0.00 0.00 0.00
20260506071618 62 21 2.0 4.0 0.00 0.00 0.00
20260506071118 62 3 0.0 0.0 0.00 0.00 0.00
20260506070618 62 3 1.0 3.0 0.00 0.00 0.00
20260506070118 62 15 0.0 0.0 0.00 0.00 0.00
20260506062118 62 342 3.0 4.0 0.00 0.00 0.00
20260506061619 62 1 2.0 3.0 0.00 0.00 0.00
20260506061118 62 25 5.0 7.0 0.00 0.00 0.00
20260506060618 62 13 3.0 5.0 0.00 0.00 0.00
20260506060119 62 339 6.0 11.0 0.00 0.00 0.00
20260506051118 64 359 4.0 6.0 0.00 0.00 0.00
20260506050618 63 345 4.0 3.0 0.00 0.00 0.00
20260506050119 64 359 7.0 7.0 0.00 0.00 0.00
20260506045119 64 4 3.0 4.0 0.00 0.00 0.00
20260506044618 65 4 5.0 4.0 0.00 0.00 0.00
20260506044118 64 339 2.0 5.0 0.00 0.00 0.00
20260506043618 64 358 5.0 6.0 0.00 0.00 0.00
20260506043118 65 49 4.0 6.0 0.00 0.00 0.00
20260506042618 65 283 5.0 8.0 0.00 0.00 0.00
20260506042118 65 24 5.0 8.0 0.00 0.00 0.00
20260506041619 65 344 4.0 4.0 0.00 0.00 0.00
20260506041119 65 338 7.0 9.0 0.00 0.00 0.00
20260506040618 66 349 6.0 10.0 0.00 0.00 0.00
20260506040119 66 1 5.0 6.0 0.00 0.00 0.00
20260506035619 66 345 8.0 10.0 0.00 0.00 0.00
20260506035119 67 349 7.0 12.0 0.00 0.00 0.00
20260506034619 67 335 7.0 7.0 0.00 0.00 0.00
20260506034119 67 6 5.0 5.0 0.00 0.00 0.00
20260506033619 68 359 5.0 8.0 0.00 0.00 0.00
20260506033119 68 359 3.0 5.0 0.00 0.00 0.00
20260506032619 68 334 3.0 3.0 0.00 0.00 0.00
20260506032119 69 356 8.0 9.0 0.00 0.00 0.00
20260506031619 69 335 7.0 7.0 0.00 0.00 0.00
20260506031119 69 359 7.0 7.0 0.00 0.00 0.00
20260506030619 69 325 7.0 9.0 0.00 0.00 0.00
20260506025619 69 61 7.0 11.0 0.00 0.00 0.00
20260506025119 70 351 2.0 1.0 0.00 0.00 0.00
20260506024619 70 141 5.0 5.0 0.00 0.00 0.00
20260506024119 70 313 8.0 13.0 0.00 0.00 0.00
20260506023119 70 359 5.0 3.0 0.00 0.00 0.00
20260506022619 70 339 4.0 10.0 0.00 0.00 0.00
20260506022119 70 320 6.0 15.0 0.00 0.00 0.00
20260506021119 71 359 4.0 9.0 0.00 0.00 0.00
20260506020619 71 311 4.0 8.0 0.00 0.00 0.00
20260506020119 71 352 7.0 10.0 0.00 0.00 0.00
20260506015619 71 349 5.0 8.0 0.00 0.00 0.00
20260506015119 72 322 4.0 10.0 0.00 0.00 0.00
20260506014619 72 352 7.0 7.0 0.00 0.00 0.00
20260506014120 72 4 5.0 3.0 0.00 0.00 0.00
20260506013619 72 359 6.0 8.0 0.00 0.00 0.00
20260506013119 73 348 5.0 7.0 0.00 0.00 0.00
20260506012619 73 23 5.0 8.0 0.00 0.00 0.00
20260506011620 73 348 4.0 6.0 0.00 0.00 0.00
20260506011120 74 62 0.0 0.0 0.00 0.00 0.00
20260506010620 74 341 7.0 12.0 0.00 0.00 0.00
20260506010119 75 325 5.0 5.0 0.00 0.00 0.00
20260506005619 76 37 5.0 2.0 0.00 0.00 0.00
20260506005119 76 18 3.0 5.0 0.00 0.00 0.00
20260506004619 76 32 3.0 2.0 0.00 0.00 0.00
20260506004119 77 356 4.0 5.0 0.00 0.00 0.00
20260506003119 78 155 6.0 5.0 0.00 0.00 0.00
20260506002620 78 359 4.0 4.0 0.00 0.00 0.00
20260506002119 79 7 5.0 4.0 0.00 0.00 0.00
20260506001119 79 6 5.0 8.0 0.00 0.00 0.00
20260506000119 80 348 4.0 4.0 0.00 0.00 0.00
20260505235619 81 320 4.0 7.0 0.00 0.00 0.00
20260505235119 81 321 7.0 8.0 0.00 0.00 0.00
20260505234620 82 18 7.0 6.0 0.00 0.00 0.00
20260505234120 82 353 7.0 6.0 0.00 0.00 0.00
20260505233619 84 10 6.0 9.0 0.00 0.00 0.00
20260505233119 84 356 6.0 6.0 0.00 0.00 0.00
20260505232620 85 346 5.0 7.0 0.00 0.00 0.00
20260505232119 86 349 5.0 4.0 0.00 0.00 0.00
20260505231620 86 28 8.0 13.0 0.00 0.00 0.00
20260505231119 87 306 7.0 10.0 0.00 0.00 0.00
20260505230120 89 325 5.0 6.0 0.00 0.00 0.00
20260505225619 90 322 3.0 10.0 0.00 0.00 0.00
20260505224620 92 282 3.0 3.0 0.00 0.00 0.00
20260505224120 92 39 6.0 6.0 0.00 0.00 0.00
20260505223120 92 327 5.0 8.0 0.00 0.00 0.00
20260505222620 92 359 6.0 7.0 0.00 0.00 0.00
20260505222120 94 336 3.0 3.0 0.00 0.00 0.00
20260505221620 95 17 5.0 5.0 0.00 0.00 0.00
20260505221120 96 279 4.0 7.0 0.00 0.00 0.00
20260505220620 96 358 3.0 4.0 0.00 0.00 0.00
20260505215620 96 272 2.0 7.0 0.00 0.00 0.00
20260505215120 97 296 1.0 2.0 0.00 0.00 0.00
20260505214120 96 244 3.0 4.0 0.00 0.00 0.00
20260505213620 96 242 0.0 7.0 0.00 0.00 0.00
20260505213121 96 201 3.0 6.0 0.00 0.00 0.00
20260505212620 95 186 0.0 0.0 0.00 0.00 0.00
20260505211620 95 331 2.0 3.0 0.00 0.00 0.00
20260505210620 95 215 4.0 4.0 0.00 0.00 0.00
20260505205621 95 255 5.0 4.0 0.00 0.00 0.00
20260505205120 94 272 5.0 7.0 0.00 0.00 0.00
20260505202121 92 245 6.0 9.0 0.00 0.00 0.00
20260505201121 94 197 6.0 12.0 0.00 0.00 0.00
20260505195120 94 215 5.0 4.0 0.00 0.00 0.00
20260505194621 94 170 5.0 8.0 0.00 0.00 0.00
20260505194121 94 245 7.0 8.0 0.00 0.00 0.00
20260505193621 94 217 4.0 9.0 0.00 0.00 0.00
20260505193120 94 232 3.0 4.0 0.00 0.00 0.00
20260505192620 94 206 5.0 10.0 0.00 0.00 0.00
20260505192121 93 229 6.0 8.0 0.00 0.00 0.00
20260505191621 92 260 5.0 6.0 0.00 0.00 0.00
20260505191120 92 180 6.0 8.0 0.00 0.00 0.00
20260505190620 91 246 7.0 6.0 0.00 0.00 0.00
20260505190121 92 293 3.0 6.0 0.00 0.00 0.00
20260505185620 91 239 6.0 9.0 0.00 0.00 0.00
20260505185120 91 173 4.0 7.0 0.00 0.00 0.00
20260505184621 91 306 8.0 9.0 0.00 0.00 0.00
20260505184120 90 260 5.0 6.0 0.00 0.00 0.00
20260505183620 91 276 7.0 7.0 0.00 0.00 0.00
20260505182621 88 229 6.0 7.0 0.00 0.00 0.00
20260505182121 87 224 5.0 8.0 0.00 0.00 0.00
20260505181121 87 255 7.0 11.0 0.00 0.00 0.00
20260505180621 87 266 5.0 7.0 0.00 0.00 0.00
20260505175121 87 263 8.0 6.0 0.00 0.00 0.00
20260505174621 86 183 5.0 9.0 0.00 0.00 0.00
20260505173621 86 221 5.0 11.0 0.00 0.00 0.00
20260505172621 85 227 8.0 9.0 0.00 0.00 0.00
20260505171621 86 242 6.0 8.0 0.00 0.00 0.00
20260505170621 85 166 6.0 8.0 0.00 0.00 0.00
20260505165622 83 244 6.0 5.0 0.00 0.00 0.00
20260505165121 85 228 6.0 11.0 0.00 0.00 0.00
20260505164621 86 228 7.0 10.0 0.00 0.00 0.00
20260505164121 84 218 5.0 5.0 0.00 0.00 0.00
20260505163621 85 213 6.0 14.0 0.00 0.00 0.00
20260505163121 84 245 5.0 9.0 0.00 0.00 0.00
20260505162621 83 232 6.0 6.0 0.00 0.00 0.00
20260505162121 83 245 6.0 15.0 0.00 0.00 0.00
20260505161621 83 235 5.0 11.0 0.00 0.00 0.00
20260505160621 80 177 8.0 7.0 0.00 0.00 0.00
20260505160121 81 217 6.0 8.0 0.00 0.00 0.00
20260505153122 79 237 4.0 6.0 0.00 0.00 0.00
20260505152621 79 222 7.0 8.0 0.00 0.00 0.00
20260505152122 78 232 6.0 6.0 0.00 0.00 0.00
20260505151621 78 255 5.0 10.0 0.00 0.00 0.00
20260505151121 77 297 8.0 5.0 0.00 0.00 0.00
20260505150621 77 232 6.0 9.0 0.00 0.00 0.00
20260505150121 77 235 6.0 10.0 0.00 0.00 0.00